Location: Cedar Falls
(42.5280°N, 92.4450°W)
Time: 09:13:26
(UTC-06:00)

NOSS 3-1 (C) - Visible Passes

Search period start: 04 March 2015 00:00
Search period end: 14 March 2015 01:00
Orbit: 882 x 1327 km, 63.4° (Epoch: 02 March)

Date Brightness Start Highest point End Pass type
(mag) Time Alt. Az. Time Alt. Az. Time Alt. Az.
04 Mar 5.9 18:43:04 10° NW 18:46:15 13° N 18:49:30 10° NNE visible
04 Mar 5.6 20:35:51 10° NNW 20:40:20 17° NNE 20:41:47 17° NE visible
04 Mar 5.6 22:26:13 10° NNW 22:29:11 25° NNW 22:29:11 25° NNW visible
05 Mar 5.8 19:50:33 10° NNW 19:54:14 15° NNE 19:58:02 10° NE visible
05 Mar 5.3 21:41:07 10° NNW 21:45:27 29° N 21:45:27 29° N visible
05 Mar 6.2 23:31:43 10° NW 23:32:50 15° NW 23:32:50 15° NW visible
06 Mar 5.8 19:04:58 10° NNW 19:08:04 13° N 19:11:22 10° NNE visible
06 Mar 5.2 20:56:02 10° NNW 21:01:43 25° NNE 21:01:43 25° NNE visible
06 Mar 5.6 22:46:26 10° NW 22:49:07 25° NNW 22:49:07 25° NNW visible
07 Mar 5.4 20:10:56 10° NNW 20:15:53 20° NNE 20:18:01 18° NE visible
07 Mar 5.1 22:01:16 10° NNW 22:05:25 35° N 22:05:25 35° N visible
07 Mar 6.4 23:52:27 10° NW 23:52:50 12° NW 23:52:50 12° NW visible
08 Mar 5.7 20:25:44 10° NNW 20:29:50 16° NNE 20:34:17 10° NE visible
08 Mar 4.8 22:16:10 10° NNW 22:21:44 37° NNE 22:21:44 37° NNE visible
09 Mar 5.8 00:06:55 10° NW 00:09:10 22° NW 00:09:10 22° NW visible
09 Mar 5.8 19:40:19 10° NNW 19:43:41 14° N 19:47:18 10° NE visible
09 Mar 5.0 21:31:04 10° NNW 21:37:16 29° NE 21:38:05 29° NE visible
09 Mar 5.2 23:21:34 10° NW 23:25:30 36° NW 23:25:30 36° NW visible
10 Mar 5.3 20:45:59 10° NNW 20:51:24 22° NNE 20:54:28 18° ENE visible
10 Mar 4.5 22:36:20 10° NNW 22:41:53 51° N 22:41:53 51° N visible
11 Mar 6.1 00:27:53 10° NW 00:29:18 16° WNW 00:29:18 16° WNW visible
11 Mar 5.5 20:00:51 10° NNW 20:05:25 18° NNE 20:10:24 10° ENE visible
11 Mar 4.3 21:51:12 10° NNW 21:58:17 47° NE 21:58:17 47° NE visible
11 Mar 5.5 23:42:10 10° NW 23:45:42 29° WNW 23:45:42 29° WNW visible
12 Mar 4.8 21:06:06 10° NNW 21:12:39 34° NE 21:14:44 30° ENE visible
12 Mar 4.6 22:56:43 10° NW 23:02:09 51° WNW 23:02:09 51° WNW visible
13 Mar 5.1 20:21:01 10° NNW 20:26:52 26° NNE 20:31:14 17° ENE visible
13 Mar 3.9 22:11:26 10° NW 22:18:39 79° NNE 22:18:39 79° NNE visible
14 Mar 5.9 00:03:27 10° WNW 00:06:05 19° WNW 00:06:05 19° WNW visible
